FENGYUN 1C DEB

Satellite information

Favourite Embed

Satellite Type and Status

DEBRISIN ORBIT

Key statistics

Satellite FENGYUN 1C DEB at a glance.

Uptime

9664

Days in orbit

Revolutions

≈ 14.3

Per day

Orbit

SSO

Sun Synchronous Orbit

Inclination

98.4

Latest

Satellite identification and parameters

Extended collection of information and parameters for FENGYUN 1C DEB.

Object identification

Identified? True

Debris? True

Object name: FENGYUN 1C DEB

International designator: 1999-025EQW

Object number (NORAD): 38149

Object ID (CCSDS): 38149

Country: PEOPLES REPUBLIC OF CHINA (PRC)

Current information (Y/N): Y

RCS size: SMALL

Orbital parameters

Period: 100.994 minutes

Inclination: 98.355 deg

SMA: 7183.846 km

Apoapsis: 861.017 km

Periapsis: 750.405 km

RAAN: 289.4152 deg

Eccentricy: 0.00769865

Argument of periapsis: 315.5576 deg

Mean anomaly: 43.9444 deg

Mean motion: 14.2582843 rev/day

Mean motion (dot): 0.0000106 rev/day2

B* drag term: 0.00044910619 1/REarth

Two-line elements (TLE)

Creation date: Oct. 22, 2025, 4:10 a.m.

Reference frame: TEME

Reference center: EARTH

Epoch: Oct. 21, 2025, 6:36 p.m. UTC

TLE line 0: 0 FENGYUN 1C DEB

TLE line 1: 1 38149U 99025EQW 25294.77517496 .00001060 00000-0 44911-3 0 9997

TLE line 2: 2 38149 98.3550 289.4152 0076986 315.5576 43.9444 14.25828430697474

Live tracking on map

Real-time ground track for satellite FENGYUN 1C DEB.

In-orbit conjunctions

A list of the most updated potential collisions computed for object FENGYUN 1C DEB.

Target Orbit TCA Probability of collision Miss distance Type
SL-8 R/B LEO 2025-09-25 06:15:58 0.0001186728 284.0 (m) ROCKET BODY
CZ-6A DEB LEO 2024-10-31 14:27:43 0.0001266391 965.0 (m) DEBRIS
SL-14 DEB LEO 2024-09-21 17:56:39 0.0004101229 55.0 (m) DEBRIS

Associated space launch

Chinese polar orbiting meteorological satellite

FENGYUN 1C DEB was lifted into orbit during the mission ‘Long March 4B | Feng Yun 1C’, on board a Long March 4B space rocket.

The launch took place on May 10, 1999, 1:33 a.m. from Launch Complex 7.

For more information about the launch, click the button.

Launch to space Long March 4B | Feng Yun 1C
Long March 4B | Feng Yun 1C

Agency: N/A

Status: Launch Successful

Launch date: May 10, 1999, 1:33 a.m. UTC

Rocket: Long March 4B

Launch pad: Launch Complex 7

Location: Taiyuan Satellite Launch Center, People's Republic of China

...

Latest news about this satellite

There are no fresh news available about this satellite. Check back as we update our databases every day.


Newsletter sign-up

Weekly statistics, charts and insights to help you stay on top of the space industry.